Cando, ND

10:28 PM CST on February 23, 2018 (GMT -0600)
Cando

Weather History for K9D7 - January, 2013

Change the Weather History Date:

Wednesday, January 23, 2013

  Actual Average (KDVL) Record (KDVL)
Temperature  
Mean Temperature -9 °F -  
Max Temperature -2 °F 19 °F 40 °F (1973)
Min Temperature -16 °F 1 °F -32 °F (1966)
Degree Days  
Heating Degree Days 74    
Moisture  
Dew Point -17 °F    
Average Humidity 68    
Maximum Humidity 84    
Minimum Humidity 54    
Precipitation  
Precipitation 0.00 in - - ()
Sea Level Pressure  
Sea Level Pressure 30.39 in    
Wind  
Wind Speed 11 mph (North)    
Max Wind Speed 18 mph    
Max Gust Speed 17 mph    
Visibility 10 miles    
Events      
Averages and records for this station are not official NWS values.
T = Trace of Precipitation, MM = Missing Value Source: NWS Daily Summary

Daily Weather History Graph

Daily Weather History Graph

Search for Another Location

Airport or City:

Trip Planner

Search our weather history database for the weather conditions in past years. The results will help you decide how hot, cold, wet, or windy it might be!

Date:

Astronomy

Jan. 23, 2013 Rise Set
Actual Time 8:16 AM CST 5:21 PM CST
Civil Twilight 7:41 AM CST 5:56 PM CST
Nautical Twilight 7:03 AM CST 6:34 PM CST
Astronomical Twilight 6:26 AM CST 7:12 PM CST
Moon 2:29 PM CST (1/23) 5:33 AM CST (1/23)
Length of Visible Light 10h 14m
Length of Day
9h 05m
Waxing Gibbous, 89% of the Moon is Illuminated
Jan 23
Waxing Gibbous
Jan 26
Full
Feb 3
Last Quarter
Feb 10
New
Feb 17
First Quarter

Hourly Weather History & Observations

Time (CST) Temp. Windchill Dew Point Humidity Pressure Visibility Wind Dir Wind Speed Gust Speed Precip Events Conditions
12:15 AM -4.0 °F -17.8 °F -9.4 °F 78% 30.11 in 10.0 mi NW 6.9 mph - N/A   Clear
12:35 AM -7.6 °F -22.1 °F - N/A% 30.11 in 10.0 mi WNW 6.9 mph - N/A   Clear
12:55 AM -9.4 °F -26.8 °F -13.0 °F 84% 30.11 in 10.0 mi WNW 9.2 mph - N/A   Clear
1:15 AM -7.6 °F -24.6 °F -11.2 °F 84% 30.11 in 10.0 mi WNW 9.2 mph - N/A   Clear
1:35 AM -5.8 °F -23.4 °F -9.4 °F 84% 30.12 in 10.0 mi WNW 10.4 mph - N/A   Clear
1:55 AM -5.8 °F -23.4 °F -11.2 °F 77% 30.12 in 10.0 mi NW 10.4 mph - N/A   Clear
2:15 AM -7.6 °F -24.6 °F - N/A% 30.13 in 10.0 mi NW 9.2 mph - N/A   Clear
2:35 AM -7.6 °F -23.4 °F - N/A% 30.13 in 10.0 mi NW 8.1 mph - N/A   Clear
2:55 AM -9.4 °F -22.7 °F -13.0 °F 84% 30.14 in 10.0 mi NW 5.8 mph - N/A   Clear
3:15 AM -4.0 °F -23.7 °F -9.4 °F 78% 30.15 in 10.0 mi NW 13.8 mph - N/A   Clear
3:35 AM -2.2 °F -22.2 °F -7.6 °F 78% 30.15 in 10.0 mi NW 15.0 mph - N/A   Clear
3:55 AM -2.2 °F -20.7 °F -7.6 °F 78% 30.15 in 10.0 mi NW 12.7 mph - N/A   Clear
4:15 AM -2.2 °F -21.5 °F -7.6 °F 78% 30.16 in 10.0 mi NNW 13.8 mph - N/A   Clear
4:35 AM -2.2 °F -22.9 °F -9.4 °F 71% 30.17 in 10.0 mi NNW 16.1 mph - N/A   Clear
4:55 AM -2.2 °F -24.1 °F -9.4 °F 71% 30.18 in 10.0 mi NNW 18.4 mph - N/A   Clear
5:15 AM -2.2 °F -24.1 °F -9.4 °F 71% 30.19 in 10.0 mi NNW 18.4 mph - N/A   Clear
5:35 AM -4.0 °F -25.2 °F -9.4 °F 78% 30.21 in 10.0 mi North 16.1 mph - N/A   Clear
6:15 AM -4.0 °F -24.5 °F -11.2 °F 71% 30.23 in 10.0 mi North 15.0 mph - N/A   Clear
6:35 AM -5.8 °F -26.0 °F -11.2 °F 77% 30.24 in 10.0 mi North 13.8 mph - N/A   Clear
6:55 AM -7.6 °F -28.3 °F - N/A% 30.26 in 10.0 mi North 13.8 mph - N/A   Clear
7:15 AM -7.6 °F -27.5 °F -13.0 °F 77% 30.28 in 10.0 mi North 12.7 mph - N/A   Clear
7:35 AM -7.6 °F -27.5 °F -13.0 °F 77% 30.29 in 9.0 mi North 12.7 mph - N/A   Partly Cloudy
7:55 AM -7.6 °F -29.1 °F -13.0 °F 77% 30.30 in 9.0 mi North 15.0 mph - N/A   Mostly Cloudy
8:15 AM -7.6 °F -26.6 °F -14.8 °F 71% 30.31 in 10.0 mi NNW 11.5 mph - N/A   Mostly Cloudy
8:35 AM -9.4 °F -27.9 °F -16.6 °F 71% 30.32 in 10.0 mi NNW 10.4 mph - N/A   Overcast
8:55 AM -11.2 °F -31.1 °F -16.6 °F 77% 30.34 in 10.0 mi NNW 11.5 mph - N/A   Overcast
9:15 AM -9.4 °F -28.9 °F -16.6 °F 71% 30.35 in 10.0 mi NNW 11.5 mph - N/A   Mostly Cloudy
9:35 AM -9.4 °F -26.8 °F -16.6 °F 71% 30.37 in 10.0 mi NNW 9.2 mph - N/A   Scattered Clouds
9:55 AM -7.6 °F -25.7 °F -14.8 °F 71% 30.38 in 10.0 mi North 10.4 mph - N/A   Mostly Cloudy
10:15 AM -7.6 °F -24.6 °F -14.8 °F 71% 30.40 in 10.0 mi North 9.2 mph - N/A   Scattered Clouds
10:35 AM -7.6 °F -28.3 °F -16.6 °F 65% 30.41 in 10.0 mi North 13.8 mph 17.3 mph N/A   Clear
10:55 AM -7.6 °F -29.1 °F -14.8 °F 71% 30.42 in 10.0 mi North 15.0 mph - N/A   Clear
11:15 AM -7.6 °F -29.1 °F -16.6 °F 65% 30.43 in 10.0 mi North 15.0 mph - N/A   Clear
11:35 AM -7.6 °F -29.1 °F -16.6 °F 65% 30.44 in 10.0 mi North 15.0 mph - N/A   Clear
11:55 AM -7.6 °F -28.3 °F -16.6 °F 65% 30.45 in 10.0 mi North 13.8 mph - N/A   Clear
12:15 PM -7.6 °F -29.1 °F -16.6 °F 65% 30.46 in 10.0 mi North 15.0 mph - N/A   Clear
12:35 PM -7.6 °F -28.3 °F -16.6 °F 65% 30.46 in 10.0 mi North 13.8 mph - N/A   Partly Cloudy
12:55 PM -7.6 °F -28.3 °F -16.6 °F 65% 30.47 in 10.0 mi North 13.8 mph - N/A   Partly Cloudy
1:15 PM -7.6 °F -28.3 °F -16.6 °F 65% 30.47 in 10.0 mi NNE 13.8 mph - N/A   Clear
1:35 PM -7.6 °F -29.1 °F -16.6 °F 65% 30.46 in 10.0 mi North 15.0 mph - N/A   Clear
1:55 PM -7.6 °F -29.1 °F -16.6 °F 65% 30.46 in 10.0 mi North 15.0 mph - N/A   Clear
2:15 PM -7.6 °F -28.3 °F -16.6 °F 65% 30.47 in 10.0 mi NNE 13.8 mph - N/A   Clear
2:35 PM -7.6 °F -27.5 °F -18.4 °F 59% 30.48 in 10.0 mi North 12.7 mph - N/A   Clear
2:55 PM -9.4 °F -29.8 °F -18.4 °F 65% 30.49 in 10.0 mi NNE 12.7 mph - N/A   Clear
3:15 PM -7.6 °F -25.7 °F -18.4 °F 59% 30.49 in 10.0 mi NNE 10.4 mph - N/A   Clear
3:35 PM -7.6 °F -25.7 °F -18.4 °F 59% 30.51 in 10.0 mi North 10.4 mph - N/A   Partly Cloudy
3:55 PM -7.6 °F -25.7 °F -20.2 °F 54% 30.52 in 10.0 mi North 10.4 mph - N/A   Clear
4:15 PM -9.4 °F -25.6 °F -20.2 °F 59% 30.54 in 10.0 mi North 8.1 mph - N/A   Partly Cloudy
4:35 PM -9.4 °F -25.6 °F -20.2 °F 59% 30.54 in 10.0 mi North 8.1 mph - N/A   Mostly Cloudy
4:55 PM -11.2 °F -30.1 °F -22.0 °F 59% 30.54 in 10.0 mi North 10.4 mph - N/A   Scattered Clouds
5:15 PM -11.2 °F -31.1 °F -22.0 °F 59% 30.55 in 10.0 mi North 11.5 mph - N/A   Clear
5:35 PM -13.0 °F -32.4 °F -22.0 °F 64% 30.54 in 10.0 mi NNE 10.4 mph - N/A   Clear
5:55 PM -13.0 °F -30.0 °F -22.0 °F 64% 30.54 in 10.0 mi NNE 8.1 mph - N/A   Clear
6:15 PM -14.8 °F -30.8 °F -23.8 °F 64% 30.55 in 10.0 mi North 6.9 mph - N/A   Clear
6:35 PM -14.8 °F -29.1 °F -23.8 °F 64% 30.55 in 10.0 mi NE 5.8 mph - N/A   Clear
6:55 PM -13.0 °F - -23.8 °F 59% 30.56 in 10.0 mi Calm Calm - N/A   Clear
7:15 PM -14.8 °F -24.8 °F -23.8 °F 64% 30.56 in 10.0 mi NE 3.5 mph - N/A   Clear
7:35 PM -14.8 °F -29.1 °F -23.8 °F 64% 30.54 in 10.0 mi ENE 5.8 mph - N/A   Clear
7:55 PM -16.6 °F -31.3 °F -23.8 °F 70% 30.54 in 10.0 mi East 5.8 mph - N/A   Clear
8:15 PM -14.8 °F -30.8 °F -23.8 °F 64% 30.53 in 10.0 mi ENE 6.9 mph - N/A   Clear
8:35 PM -13.0 °F -30.0 °F -23.8 °F 59% 30.53 in 10.0 mi East 8.1 mph - N/A   Clear
8:55 PM -14.8 °F -33.5 °F -25.6 °F 58% 30.54 in 10.0 mi East 9.2 mph - N/A   Clear
9:15 PM -14.8 °F -30.8 °F -25.6 °F 58% 30.55 in 10.0 mi East 6.9 mph - N/A   Clear
9:35 PM -14.8 °F -29.1 °F -25.6 °F 58% 30.56 in 10.0 mi ESE 5.8 mph - N/A   Clear
10:15 PM -16.6 °F -34.4 °F -25.6 °F 64% 30.55 in 10.0 mi East 8.1 mph - N/A   Clear
10:35 PM -16.6 °F -34.4 °F -25.6 °F 64% 30.55 in 10.0 mi ESE 8.1 mph - N/A   Clear
10:55 PM -14.8 °F -32.2 °F -25.6 °F 58% 30.56 in 10.0 mi ESE 8.1 mph - N/A   Scattered Clouds
11:15 PM -14.8 °F -32.2 °F -25.6 °F 58% 30.56 in 10.0 mi SE 8.1 mph - N/A   Overcast
11:35 PM -14.8 °F -30.8 °F -25.6 °F 58% 30.55 in 10.0 mi SE 6.9 mph - N/A   Mostly Cloudy
11:55 PM -14.8 °F -33.5 °F -23.8 °F 64% 30.55 in 10.0 mi ESE 9.2 mph - N/A   Clear